Zurück zum Katalog

STARLINK-35934

AktivKommunikationSSO
NORAD 67542·PAYLOAD·🇺🇸 United States

Gestartet Jan 22, 2026 von Vandenberg Space Force Base

Loading…

Nächste Überflüge (nächste 24 Stunden)

TLE

AktuellSource: CelesTrak SupGP

Epoche: Sep 14, 2026, 22:48 UTC

1 67542C 26014L   26257.95048611  .00030231  00000+0  93887-3 0  2576
2 67542  97.2847 143.4631 0001757  88.6967 221.4419 15.33408917    14

Verfolge STARLINK-35934 in Echtzeit mit AllMySat

Download on the App Store